| time (UTC) | temp F | wind direction | speed MPH | gust MPH | rain 1hr in | rain 24hr in | rain mn in | humidity % | barometer mb |
| 20260504000021 | 63 | 286 | 3.0 | 10.0 | 0.00 | 0.00 | 0.00 | 63 | 1011.0 |
| 20260503235521 | 63 | 292 | 3.0 | 9.0 | 0.00 | 0.00 | 0.00 | 63 | 1010.8 |
| 20260503235024 | 63 | 296 | 3.0 | 9.0 | 0.00 | 0.00 | 0.00 | 65 | 1010.8 |
| 20260503234522 | 63 | 248 | 3.0 | 10.0 | 0.00 | 0.00 | 0.00 | 64 | 1010.8 |
| 20260503234021 | 63 | 240 | 4.0 | 10.0 | 0.00 | 0.00 | 0.00 | 64 | 1010.7 |
| 20260503233520 | 63 | 286 | 2.0 | 12.0 | 0.00 | 0.00 | 0.00 | 66 | 1010.8 |
| 20260503233022 | 63 | 259 | 3.0 | 12.0 | 0.00 | 0.00 | 0.00 | 64 | 1010.9 |
| 20260503232520 | 63 | 285 | 3.0 | 10.0 | 0.00 | 0.00 | 0.00 | 65 | 1010.9 |
| 20260503232021 | 62 | 261 | 2.0 | 8.0 | 0.00 | 0.00 | 0.00 | 66 | 1010.8 |
| 20260503231520 | 62 | 286 | 1.0 | 8.0 | 0.00 | 0.00 | 0.00 | 65 | 1010.9 |
| 20260503231020 | 62 | 281 | 2.0 | 8.0 | 0.00 | 0.00 | 0.00 | 67 | 1010.9 |
| 20260503230520 | 62 | 244 | 2.0 | 9.0 | 0.00 | 0.00 | 0.00 | 66 | 1010.9 |
| 20260503230020 | 62 | 244 | 3.0 | 9.0 | 0.00 | 0.00 | 0.00 | 65 | 1011.0 |
| 20260503225518 | 63 | 279 | 2.0 | 7.0 | 0.00 | 0.00 | 0.00 | 64 | 1011.1 |
| 20260503225018 | 63 | 284 | 2.0 | 8.0 | 0.00 | 0.00 | 0.00 | 65 | 1011.2 |
| 20260503224519 | 63 | 289 | 2.0 | 10.0 | 0.00 | 0.00 | 0.00 | 67 | 1011.1 |
| 20260503224018 | 63 | 242 | 2.0 | 10.0 | 0.00 | 0.00 | 0.00 | 67 | 1011.2 |
| 20260503223518 | 63 | 288 | 3.0 | 9.0 | 0.00 | 0.00 | 0.00 | 65 | 1011.2 |
| 20260503223017 | 63 | 227 | 2.0 | 11.0 | 0.00 | 0.00 | 0.00 | 65 | 1011.2 |
| 20260503222517 | 62 | 282 | 6.0 | 11.0 | 0.00 | 0.00 | 0.00 | 67 | 1011.2 |
| 20260503222017 | 62 | 290 | 3.0 | 10.0 | 0.00 | 0.00 | 0.00 | 68 | 1011.3 |
| 20260503221517 | 62 | 243 | 3.0 | 10.0 | 0.00 | 0.00 | 0.00 | 67 | 1011.4 |
| 20260503221017 | 62 | 296 | 2.0 | 8.0 | 0.00 | 0.00 | 0.00 | 70 | 1011.4 |
| 20260503220521 | 63 | 288 | 4.0 | 12.0 | 0.00 | 0.00 | 0.00 | 66 | 1011.4 |
| 20260503220017 | 63 | 276 | 5.0 | 12.0 | 0.00 | 0.00 | 0.00 | 67 | 1011.4 |
| 20260503215516 | 62 | 272 | 3.0 | 10.0 | 0.00 | 0.00 | 0.00 | 68 | 1011.4 |
| 20260503215016 | 62 | 240 | 2.0 | 10.0 | 0.00 | 0.00 | 0.00 | 70 | 1011.3 |
| 20260503214516 | 61 | 268 | 3.0 | 11.0 | 0.00 | 0.00 | 0.00 | 68 | 1011.4 |
| 20260503214017 | 62 | 284 | 5.0 | 12.0 | 0.00 | 0.00 | 0.00 | 68 | 1011.3 |
| 20260503213516 | 62 | 308 | 4.0 | 12.0 | 0.00 | 0.00 | 0.00 | 67 | 1011.3 |
| 20260503213018 | 63 | 290 | 5.0 | 13.0 | 0.00 | 0.00 | 0.00 | 65 | 1011.2 |
| 20260503212516 | 64 | 284 | 6.0 | 13.0 | 0.00 | 0.00 | 0.00 | 65 | 1011.1 |
| 20260503212014 | 65 | 306 | 4.0 | 11.0 | 0.00 | 0.00 | 0.00 | 64 | 1011.1 |
| 20260503211514 | 64 | 275 | 2.0 | 11.0 | 0.00 | 0.00 | 0.00 | 67 | 1011.1 |
| 20260503211020 | 64 | 288 | 5.0 | 11.0 | 0.00 | 0.00 | 0.00 | 66 | 1011.1 |
| 20260503210513 | 64 | 295 | 5.0 | 12.0 | 0.00 | 0.00 | 0.00 | 65 | 1011.1 |
| 20260503210115 | 64 | 224 | 4.0 | 12.0 | 0.00 | 0.00 | 0.00 | 67 | 1011.1 |
| 20260503205514 | 64 | 282 | 2.0 | 11.0 | 0.00 | 0.00 | 0.00 | 68 | 1011.1 |
| 20260503205013 | 64 | 292 | 2.0 | 11.0 | 0.00 | 0.00 | 0.00 | 71 | 1011.1 |
| 20260503204519 | 63 | 308 | 2.0 | 9.0 | 0.00 | 0.00 | 0.00 | 69 | 1011.2 |
| 20260503204016 | 63 | 296 | 4.0 | 12.0 | 0.00 | 0.00 | 0.00 | 68 | 1011.1 |
| 20260503203513 | 63 | 290 | 6.0 | 11.0 | 0.00 | 0.00 | 0.00 | 68 | 1011.0 |
| 20260503203014 | 64 | 265 | 3.0 | 9.0 | 0.00 | 0.00 | 0.00 | 66 | 1011.1 |
| 20260503202510 | 64 | 291 | 2.0 | 11.0 | 0.00 | 0.00 | 0.00 | 71 | 1011.1 |
| 20260503202010 | 64 | 289 | 4.0 | 11.0 | 0.00 | 0.00 | 0.00 | 67 | 1011.1 |
| 20260503201509 | 64 | 280 | 4.0 | 9.0 | 0.00 | 0.00 | 0.00 | 69 | 1011.0 |
| 20260503201007 | 63 | 248 | 3.0 | 10.0 | 0.00 | 0.00 | 0.00 | 73 | 1011.0 |
| 20260503200507 | 62 | 270 | 4.0 | 10.0 | 0.00 | 0.00 | 0.00 | 71 | 1011.1 |
| 20260503200009 | 62 | 290 | 4.0 | 10.0 | 0.00 | 0.00 | 0.00 | 70 | 1011.2 |
| 20260503195506 | 62 | 325 | 3.0 | 11.0 | 0.00 | 0.00 | 0.00 | 71 | 1011.2 |
| 20260503195006 | 62 | 289 | 5.0 | 11.0 | 0.00 | 0.00 | 0.00 | 71 | 1011.2 |
| 20260503194506 | 62 | 274 | 3.0 | 10.0 | 0.00 | 0.00 | 0.00 | 72 | 1011.2 |
| 20260503194006 | 62 | 292 | 2.0 | 8.0 | 0.00 | 0.00 | 0.00 | 73 | 1011.2 |
| 20260503193504 | 61 | 273 | 3.0 | 9.0 | 0.00 | 0.00 | 0.00 | 73 | 1011.1 |
| 20260503193006 | 61 | 296 | 2.0 | 8.0 | 0.00 | 0.00 | 0.00 | 72 | 1011.2 |
| 20260503192502 | 61 | 297 | 3.0 | 8.0 | 0.00 | 0.00 | 0.00 | 74 | 1011.2 |
| 20260503192003 | 61 | 292 | 2.0 | 11.0 | 0.00 | 0.00 | 0.00 | 75 | 1011.1 |
| 20260503191501 | 61 | 265 | 6.0 | 11.0 | 0.00 | 0.00 | 0.00 | 73 | 1011.2 |
| 20260503191101 | 61 | 236 | 4.0 | 11.0 | 0.00 | 0.00 | 0.00 | 74 | 1011.1 |
| 20260503190600 | 60 | 290 | 3.0 | 12.0 | 0.00 | 0.00 | 0.00 | 75 | 1011.3 |
| 20260503190105 | 60 | 276 | 5.0 | 12.0 | 0.00 | 0.00 | 0.00 | 74 | 1011.1 |
| 20260503185559 | 60 | 290 | 3.0 | 11.0 | 0.00 | 0.00 | 0.00 | 76 | 1011.2 |
| 20260503185102 | 59 | 287 | 6.0 | 11.0 | 0.00 | 0.00 | 0.00 | 76 | 1011.3 |
| 20260503184559 | 59 | 261 | 2.0 | 11.0 | 0.00 | 0.00 | 0.00 | 77 | 1011.3 |
| 20260503184058 | 59 | 286 | 4.0 | 11.0 | 0.00 | 0.00 | 0.00 | 76 | 1011.3 |
| 20260503183559 | 59 | 286 | 2.0 | 9.0 | 0.00 | 0.00 | 0.00 | 75 | 1011.3 |
| 20260503183116 | 60 | 289 | 2.0 | 9.0 | 0.00 | 0.00 | 0.00 | 76 | 1011.3 |
| 20260503182557 | 60 | 286 | 4.0 | 10.0 | 0.00 | 0.00 | 0.00 | 76 | 1011.3 |
| 20260503182057 | 59 | 271 | 3.0 | 7.0 | 0.00 | 0.00 | 0.00 | 77 | 1011.3 |
| 20260503181619 | 59 | 282 | 2.0 | 10.0 | 0.00 | 0.00 | 0.00 | 78 | 1011.3 |
| 20260503181056 | 59 | 227 | 3.0 | 10.0 | 0.00 | 0.00 | 0.00 | 75 | 1011.3 |
| 20260503180556 | 60 | 288 | 3.0 | 8.0 | 0.00 | 0.00 | 0.00 | 73 | 1011.2 |
| 20260503180059 | 61 | 288 | 3.0 | 9.0 | 0.00 | 0.00 | 0.00 | 74 | 1011.2 |
| 20260503175554 | 61 | 284 | 2.0 | 7.0 | 0.00 | 0.00 | 0.00 | 75 | 1011.1 |
| 20260503175053 | 61 | 295 | 1.0 | 5.0 | 0.00 | 0.00 | 0.00 | 74 | 1011.1 |
| 20260503174553 | 61 | 289 | 2.0 | 5.0 | 0.00 | 0.00 | 0.00 | 73 | 1011.1 |
| 20260503174052 | 61 | 307 | 0.0 | 4.0 | 0.00 | 0.00 | 0.00 | 74 | 1011.0 |
| 20260503173553 | 61 | 303 | 1.0 | 3.0 | 0.00 | 0.00 | 0.00 | 75 | 1011.0 |
| 20260503173056 | 60 | 290 | 0.0 | 3.0 | 0.00 | 0.00 | 0.00 | 75 | 1011.0 |
| 20260503172553 | 59 | 218 | 1.0 | 4.0 | 0.00 | 0.00 | 0.00 | 74 | 1011.0 |
| 20260503172048 | 59 | 282 | 0.0 | 4.0 | 0.00 | 0.00 | 0.00 | 75 | 1010.9 |
| 20260503171550 | 59 | 317 | 1.0 | 3.0 | 0.00 | 0.00 | 0.00 | 77 | 1010.9 |
| 20260503171051 | 59 | 318 | 0.0 | 3.0 | 0.00 | 0.00 | 0.00 | 76 | 1010.9 |
| 20260503170548 | 59 | 319 | 0.0 | 4.0 | 0.00 | 0.00 | 0.00 | 78 | 1010.9 |
| 20260503150531 | 57 | 244 | 0.0 | 2.0 | 0.00 | 0.00 | 0.00 | 69 | 1010.2 |
| 20260503131012 | 56 | 76 | 0.0 | 4.0 | 0.00 | 0.00 | 0.00 | 65 | 1008.7 |
| 20260503130514 | 56 | 80 | 1.0 | 4.0 | 0.00 | 0.00 | 0.00 | 65 | 1008.7 |
| 20260503110558 | 59 | 107 | 2.0 | 5.0 | 0.00 | 0.00 | 0.00 | 63 | 1008.9 |
| 20260503100106 | 59 | 86 | 3.0 | 5.0 | 0.00 | 0.00 | 0.00 | 67 | 1009.1 |
| 20260503081539 | 60 | 94 | 2.0 | 3.0 | 0.00 | 0.00 | 0.00 | 68 | 1009.7 |
| 20260503081039 | 60 | 94 | 1.0 | 3.0 | 0.00 | 0.00 | 0.00 | 69 | 1009.7 |
| 20260503080538 | 60 | 92 | 2.0 | 4.0 | 0.00 | 0.00 | 0.00 | 70 | 1009.8 |
| 20260503072534 | 60 | 128 | 1.0 | 2.0 | 0.00 | 0.00 | 0.00 | 72 | 1010.0 |
| 20260503072033 | 60 | 128 | 0.0 | 3.0 | 0.00 | 0.00 | 0.00 | 72 | 1010.0 |
| 20260503071536 | 60 | 112 | 1.0 | 3.0 | 0.00 | 0.00 | 0.00 | 73 | 1010.1 |
| 20260503071030 | 60 | 88 | 0.0 | 2.0 | 0.00 | 0.00 | 0.00 | 74 | 1010.1 |
| 20260503070530 | 60 | 86 | 0.0 | 3.0 | 0.00 | 0.00 | 0.00 | 72 | 1010.1 |
| 20260503055026 | 61 | 211 | 0.0 | 0.0 | 0.00 | 0.00 | 0.00 | 74 | 1010.3 |
| 20260503054536 | 61 | 211 | 0.0 | 0.0 | 0.00 | 0.00 | 0.00 | 74 | 1010.4 |
| 20260503054026 | 61 | 211 | 0.0 | 0.0 | 0.00 | 0.00 | 0.00 | 75 | 1010.4 |
| 20260503053526 | 61 | 211 | 0.0 | 0.0 | 0.00 | 0.00 | 0.00 | 75 | 1010.4 |
| 20260503053026 | 61 | 211 | 0.0 | 0.0 | 0.00 | 0.00 | 0.00 | 74 | 1010.5 |
| 20260503052527 | 61 | 211 | 0.0 | 0.0 | 0.00 | 0.00 | 0.00 | 74 | 1010.4 |
| 20260503052026 | 61 | 211 | 0.0 | 0.0 | 0.00 | 0.00 | 0.00 | 74 | 1010.3 |
| 20260503051528 | 61 | 221 | 0.0 | 0.0 | 0.00 | 0.00 | 0.00 | 74 | 1010.4 |
| 20260503051025 | 61 | 221 | 0.0 | 0.0 | 0.00 | 0.00 | 0.00 | 74 | 1010.4 |
| 20260503050525 | 61 | 238 | 0.0 | 0.0 | 0.00 | 0.00 | 0.00 | 74 | 1010.4 |
| 20260503050025 | 61 | 238 | 0.0 | 0.0 | 0.00 | 0.00 | 0.00 | 74 | 1010.4 |
| 20260503045525 | 61 | 238 | 0.0 | 0.0 | 0.00 | 0.00 | 0.00 | 74 | 1010.4 |
| 20260503045028 | 61 | 238 | 0.0 | 0.0 | 0.00 | 0.00 | 0.00 | 74 | 1010.4 |
| 20260503044532 | 61 | 238 | 0.0 | 0.0 | 0.00 | 0.00 | 0.00 | 73 | 1010.4 |
| 20260503044024 | 61 | 238 | 0.0 | 0.0 | 0.00 | 0.00 | 0.00 | 74 | 1010.3 |
| 20260503043524 | 61 | 238 | 0.0 | 0.0 | 0.00 | 0.00 | 0.00 | 74 | 1010.3 |
| 20260503043024 | 61 | 238 | 0.0 | 2.0 | 0.00 | 0.00 | 0.00 | 73 | 1010.3 |
| 20260503042524 | 62 | 238 | 0.0 | 2.0 | 0.00 | 0.00 | 0.00 | 74 | 1010.2 |
| 20260503042024 | 62 | 238 | 0.0 | 1.0 | 0.00 | 0.00 | 0.00 | 74 | 1010.2 |
| 20260503041523 | 62 | 238 | 0.0 | 2.0 | 0.00 | 0.00 | 0.00 | 73 | 1010.2 |
| 20260503041027 | 62 | 277 | 0.0 | 2.0 | 0.00 | 0.00 | 0.00 | 73 | 1010.2 |
| 20260503040522 | 62 | 288 | 0.0 | 0.0 | 0.00 | 0.00 | 0.00 | 72 | 1010.0 |
| 20260503040027 | 62 | 288 | 0.0 | 0.0 | 0.00 | 0.00 | 0.00 | 72 | 1010.0 |
| 20260503035527 | 62 | 288 | 0.0 | 0.0 | 0.00 | 0.00 | 0.00 | 72 | 1010.0 |
| 20260503035024 | 62 | 288 | 0.0 | 0.0 | 0.00 | 0.00 | 0.00 | 72 | 1010.0 |
| 20260503034523 | 62 | 288 | 0.0 | 0.0 | 0.00 | 0.00 | 0.00 | 72 | 1009.9 |
| 20260503034023 | 63 | 288 | 0.0 | 0.0 | 0.00 | 0.00 | 0.00 | 72 | 1009.9 |
| 20260503033521 | 63 | 288 | 0.0 | 0.0 | 0.00 | 0.00 | 0.00 | 71 | 1009.9 |
| 20260503033022 | 63 | 288 | 0.0 | 1.0 | 0.00 | 0.00 | 0.00 | 71 | 1009.8 |
| 20260503032522 | 63 | 288 | 0.0 | 1.0 | 0.00 | 0.00 | 0.00 | 71 | 1009.7 |
| 20260503032021 | 63 | 288 | 0.0 | 0.0 | 0.00 | 0.00 | 0.00 | 71 | 1009.7 |
| 20260503031521 | 63 | 288 | 0.0 | 0.0 | 0.00 | 0.00 | 0.00 | 70 | 1009.7 |
| 20260503031020 | 64 | 288 | 0.0 | 1.0 | 0.00 | 0.00 | 0.00 | 70 | 1009.6 |
| 20260503030520 | 64 | 288 | 0.0 | 2.0 | 0.00 | 0.00 | 0.00 | 70 | 1009.6 |
| 20260503030022 | 64 | 288 | 0.0 | 2.0 | 0.00 | 0.00 | 0.00 | 69 | 1009.5 |
| 20260503025520 | 64 | 290 | 0.0 | 0.0 | 0.00 | 0.00 | 0.00 | 68 | 1009.5 |
| 20260503025022 | 65 | 290 | 0.0 | 2.0 | 0.00 | 0.00 | 0.00 | 68 | 1009.6 |
| 20260503024520 | 65 | 290 | 0.0 | 2.0 | 0.00 | 0.00 | 0.00 | 67 | 1009.5 |
| 20260503024020 | 65 | 290 | 0.0 | 0.0 | 0.00 | 0.00 | 0.00 | 66 | 1009.5 |
| 20260503023520 | 65 | 290 | 0.0 | 0.0 | 0.00 | 0.00 | 0.00 | 66 | 1009.5 |
| 20260503023019 | 65 | 290 | 0.0 | 3.0 | 0.00 | 0.00 | 0.00 | 67 | 1009.5 |
| 20260503022518 | 66 | 290 | 0.0 | 4.0 | 0.00 | 0.00 | 0.00 | 66 | 1009.4 |
| 20260503022025 | 66 | 290 | 1.0 | 4.0 | 0.00 | 0.00 | 0.00 | 67 | 1009.6 |
| 20260503021517 | 66 | 289 | 1.0 | 4.0 | 0.00 | 0.00 | 0.00 | 66 | 1009.6 |
| 20260503021020 | 66 | 288 | 1.0 | 4.0 | 0.00 | 0.00 | 0.00 | 66 | 1009.6 |
| 20260503020517 | 66 | 294 | 1.0 | 4.0 | 0.00 | 0.00 | 0.00 | 66 | 1009.6 |
| 20260503020017 | 67 | 293 | 1.0 | 3.0 | 0.00 | 0.00 | 0.00 | 65 | 1009.6 |
| 20260503015516 | 67 | 292 | 1.0 | 4.0 | 0.00 | 0.00 | 0.00 | 64 | 1009.6 |
| 20260503015016 | 67 | 292 | 1.0 | 4.0 | 0.00 | 0.00 | 0.00 | 64 | 1009.6 |
| 20260503014516 | 68 | 288 | 1.0 | 5.0 | 0.00 | 0.00 | 0.00 | 63 | 1009.6 |
| 20260503014016 | 68 | 265 | 2.0 | 6.0 | 0.00 | 0.00 | 0.00 | 63 | 1009.7 |
| 20260503013517 | 68 | 290 | 2.0 | 9.0 | 0.00 | 0.00 | 0.00 | 62 | 1009.7 |
| 20260503013016 | 69 | 287 | 2.0 | 6.0 | 0.00 | 0.00 | 0.00 | 63 | 1009.7 |
| 20260503012516 | 69 | 284 | 2.0 | 8.0 | 0.00 | 0.00 | 0.00 | 62 | 1009.7 |
| 20260503012015 | 69 | 290 | 2.0 | 8.0 | 0.00 | 0.00 | 0.00 | 61 | 1009.7 |
| 20260503011517 | 69 | 283 | 2.0 | 9.0 | 0.00 | 0.00 | 0.00 | 60 | 1009.7 |
| 20260503011014 | 70 | 286 | 3.0 | 9.0 | 0.00 | 0.00 | 0.00 | 60 | 1009.7 |
| 20260503010514 | 70 | 291 | 4.0 | 10.0 | 0.00 | 0.00 | 0.00 | 59 | 1009.7 |
| 20260503010124 | 71 | 290 | 5.0 | 10.0 | 0.00 | 0.00 | 0.00 | 58 | 1009.8 |
| 20260503005513 | 72 | 282 | 4.0 | 9.0 | 0.00 | 0.00 | 0.00 | 58 | 1009.7 |
| 20260503005013 | 72 | 254 | 2.0 | 9.0 | 0.00 | 0.00 | 0.00 | 57 | 1009.7 |
| 20260503004512 | 73 | 288 | 3.0 | 7.0 | 0.00 | 0.00 | 0.00 | 55 | 1009.8 |
| 20260503004012 | 73 | 296 | 1.0 | 5.0 | 0.00 | 0.00 | 0.00 | 55 | 1009.8 |
| 20260503003512 | 73 | 272 | 1.0 | 6.0 | 0.00 | 0.00 | 0.00 | 52 | 1009.7 |
| 20260503003012 | 73 | 223 | 1.0 | 6.0 | 0.00 | 0.00 | 0.00 | 53 | 1009.8 |
| 20260503002514 | 73 | 189 | 2.0 | 6.0 | 0.00 | 0.00 | 0.00 | 52 | 1009.9 |
| 20260503002012 | 73 | 184 | 3.0 | 8.0 | 0.00 | 0.00 | 0.00 | 53 | 1009.9 |
| 20260503001514 | 74 | 184 | 3.0 | 6.0 | 0.00 | 0.00 | 0.00 | 52 | 1009.9 |
| 20260503001010 | 74 | 215 | 1.0 | 6.0 | 0.00 | 0.00 | 0.00 | 53 | 1010.0 |
| 20260503000510 | 75 | 215 | 1.0 | 8.0 | 0.00 | 0.00 | 0.00 | 52 | 1010.0 |